Weather History for TKPK - November, 2012

Change the Weather History Date:

Sunday, November 25, 2012

  Actual Average Record
Temperature  
Mean Temperature 82 °F -  
Max Temperature 87 °F 81 °F 91 °F (2014)
Min Temperature 77 °F 74 °F 73 °F (2001)
Cooling Degree Days 17    
Growing Degree Days 32 (Base 50)    
Moisture  
Dew Point 74 °F    
Average Humidity 74    
Maximum Humidity 94    
Minimum Humidity 57    
Precipitation  
Precipitation 0.00 in - - ()
Sea Level Pressure  
Sea Level Pressure 29.99 in    
Wind  
Wind Speed 10 mph ()    
Max Wind Speed 16 mph    
Max Gust Speed -    
Visibility 6.9 miles    
Events Tornado    
Averages and records for this station are not official NWS values.
T = Trace of Precipitation, MM = Missing Value Source: Averaged Metar Reports

Daily Weather History Graph

Daily Weather History Graph

Search for Another Location

Airport or City:

Trip Planner

Search our weather history database for the weather conditions in past years. The results will help you decide how hot, cold, wet, or windy it might be!

Date:

Astronomy

Nov. 25, 2012 Rise Set
Actual Time 6:21 AM AST 5:34 PM AST
Civil Twilight 5:58 AM AST 5:57 PM AST
Nautical Twilight 5:31 AM AST 6:24 PM AST
Astronomical Twilight 5:05 AM AST 6:50 PM AST
Moon 3:35 PM AST (11/25) 3:48 AM AST (11/25)
Length of Visible Light 11h 59m
Length of Day
11h 13m
Waxing Gibbous, 92% of the Moon is Illuminated
Nov 25
Waxing Gibbous
Nov 28
Full
Dec 6
Last Quarter
Dec 13
New
Dec 20
First Quarter

Hourly Weather History & Observations

Time (AST) Temp. Heat Index Dew Point Humidity Pressure Visibility Wind Dir Wind Speed Gust Speed Precip Events Conditions
6:00 AM 77.0 °F - 75.2 °F 94% 29.95 in 6.2 mi NE 6.9 mph - N/A   Scattered Clouds
7:00 AM 78.8 °F - 75.2 °F 89% 29.98 in 6.2 mi ENE 9.2 mph - N/A   Scattered Clouds
8:00 AM 83 °F - 76 °F 75% 30.00 in 22 mi ENE 10.4 mph - -   Partly Cloudy
8:00 AM 84.2 °F 94.1 °F 77.0 °F 79% 29.98 in 6.2 mi ENE 10.4 mph - N/A   Scattered Clouds
9:00 AM 84.2 °F 92.3 °F 75.2 °F 74% 30.01 in 6.2 mi East 12.7 mph - N/A   Scattered Clouds
10:00 AM 86.0 °F 95.1 °F 75.2 °F 70% 30.01 in 6.2 mi East 12.7 mph - N/A   Scattered Clouds
11:00 AM 87 °F - 76 °F 62% 30.03 in 22 mi ENE 16.1 mph - -   Partly Cloudy
11:00 AM 87.8 °F 97.6 °F 75.2 °F 66% 30.01 in 6.2 mi ENE 16.1 mph - N/A   Scattered Clouds
12:00 PM 84.2 °F 92.3 °F 75.2 °F 74% 30.01 in 6.2 mi ENE 16.1 mph - N/A   Scattered Clouds
1:00 PM 86.0 °F 93.4 °F 73.4 °F 66% 29.98 in 6.2 mi ENE 16.1 mph - N/A   Scattered Clouds
2:00 PM 86 °F - 73 °F 57% 29.98 in 22 mi ENE 13.8 mph - -   Scattered Clouds
2:00 PM 86.0 °F 93.4 °F 73.4 °F 66% 29.98 in 6.2 mi ENE 13.8 mph - N/A Tornado Funnel Cloud
3:00 PM 86.0 °F 93.4 °F 73.4 °F 66% 29.95 in 6.2 mi ENE 16.1 mph - N/A   Partly Cloudy
4:00 PM 84.2 °F 90.9 °F 73.4 °F 70% 29.95 in 6.2 mi ENE 10.4 mph - N/A   Partly Cloudy
5:00 PM 82 °F - 73 °F 68% 29.98 in 22 mi ENE 11.5 mph - -   Scattered Clouds
5:00 PM 82.4 °F 88.2 °F 73.4 °F 74% 29.98 in 6.2 mi ENE 11.5 mph - N/A   Partly Cloudy
6:00 PM 82.4 °F 88.2 °F 73.4 °F 74% 29.98 in 6.2 mi NE 8.1 mph - N/A   Partly Cloudy
7:00 PM 78.8 °F - 73.4 °F 83% 30.01 in 6.2 mi NE 10.4 mph - N/A   Partly Cloudy
8:00 PM 79 °F - 73 °F 77% 30.03 in 18 mi NE 10.4 mph - -   Scattered Clouds
8:00 PM 78.8 °F - 73.4 °F 83% 30.01 in 6.2 mi NE 10.4 mph - N/A   Partly Cloudy
9:00 PM 78.8 °F - 73.4 °F 83% 30.04 in 6.2 mi ENE 11.5 mph - N/A   Partly Cloudy